OETR

Details ICAO OETR (TUI)
Name TURAIF
Region Saudi Arabia
Timezone Asia/Riyadh (UTC+3.0)
Plans Departing 4
Arriving 4
Stats Elevation 2,803 ft / 854 m (AMSL)
Location 31.692682° 38.731266°
Runways 1
Magnetic Variation 4.652° E
Sunrise 2018-05-23 02:25:25 UTC / 2018-05-23 05:25:25 Local
Sunset 2018-05-23 16:21:04 UTC / 2018-05-23 19:21:04 Local
Advertisement - Login to hide

Runways

ID Width Length Bearing (true) Bearing (mag) Surface Threshold Offset Overrun Length
10 148 ft / 45 m 9,828 ft / 2,996 m 105.47° 100.82° Asphalt 0 ft / 0 m 185 ft / 56 m
28 148 ft / 45 m 9,828 ft / 2,996 m 285.48° 280.83° Asphalt 0 ft / 0 m 185 ft / 56 m

Map

Weather


0- 5 10 15 20 25 30 35+ Temperature / ° C

Clouds and Precipitation
Forecast for 2018-05-23 12:00 UTC. Updated 2 hours ago

Ground ~20,000 ft ~40,000 ft Winds

METAR

OETR 231100Z 26020KT 6000 FEW040 35/07 Q1014 NOSIG

TAF

Not found

Frequencies

Unicom 122.80 MHz CTAF
Tower 131.50 MHz SAUDIA RDO
Warning: Do not use this data for real-world aviation or navigation. No guarantee of current accuracy is given.